WX8TJG-WX Weather Reports


time (UTC)temp
C
wind
direction
speed
KPH
gust
KPH
rain 1hr
cm
rain 24hr
cm
rain mn
cm
humidity
%
barometer
mb
20260506215038 11 329 8.0 14.5 0.00 1.22 0.25 58 1013.1
20260506214015 11 287 8.0 12.9 0.00 1.32 0.25 57 1013.1
20260506213016 11 280 6.4 12.9 0.00 1.50 0.25 58 1013.2
20260506212016 11 275 8.0 11.3 0.00 1.63 0.25 55 1013.1
20260506211016 11 299 9.7 14.5 0.00 1.63 0.25 55 1012.8
20260506210036 11 305 6.4 9.7 0.00 1.65 0.25 57 1012.7
20260506205016 11 284 8.0 14.5 0.00 1.65 0.25 58 1012.7
20260506204017 11 300 9.7 17.7 0.00 1.65 0.25 56 1012.6
20260506203040 12 311 8.0 16.1 0.00 1.65 0.25 56 1012.6
20260506202017 11 300 6.4 11.3 0.00 1.65 0.25 56 1012.8
20260506201017 12 311 9.7 14.5 0.00 1.65 0.25 55 1012.9
20260506200017 11 302 6.4 9.7 0.00 1.65 0.25 57 1012.9
20260506195018 11 281 9.7 14.5 0.00 1.65 0.25 58 1012.8
20260506194019 11 277 19.3 30.6 0.00 1.70 0.25 59 1012.7
20260506193016 11 283 20.9 30.6 0.00 1.70 0.25 56 1012.7
20260506192036 12 283 19.3 29.0 0.00 1.70 0.25 55 1012.8
20260506191016 12 339 12.9 27.4 0.00 1.73 0.25 55 1012.7
20260506190018 12 340 11.3 20.9 0.00 1.73 0.25 56 1012.5
20260506185015 11 331 14.5 20.9 0.00 1.73 0.25 57 1012.6
20260506184015 11 334 14.5 20.9 0.00 1.73 0.25 58 1012.9
20260506183016 11 311 14.5 24.1 0.00 1.73 0.25 59 1012.9
20260506182016 12 297 14.5 20.9 0.00 1.73 0.25 59 1012.9
20260506181036 12 291 12.9 41.8 0.00 1.73 0.25 58 1012.6
20260506180016 12 317 9.7 25.7 0.00 1.73 0.25 60 1012.5
20260506175016 12 322 9.7 22.5 0.00 1.73 0.25 57 1012.6
20260506174017 12 332 9.7 16.1 0.00 1.73 0.25 58 1012.8
20260506173017 12 296 11.3 19.3 0.00 1.73 0.25 59 1012.7
20260506172017 12 289 9.7 19.3 0.00 1.73 0.25 60 1012.5
20260506171017 12 323 9.7 17.7 0.00 1.73 0.25 60 1012.5
20260506170017 12 345 9.7 17.7 0.00 1.73 0.25 63 1012.4
20260506165017 12 329 9.7 16.1 0.00 1.73 0.25 65 1012.4
20260506164037 11 307 8.0 12.9 0.00 1.73 0.25 65 1012.4
20260506163018 11 313 9.7 16.1 0.00 1.73 0.25 64 1012.8
20260506162018 11 313 9.7 19.3 0.00 1.73 0.25 66 1013.0
20260506161018 11 309 8.0 14.5 0.00 1.73 0.25 69 1012.6
20260506160018 11 313 9.7 29.0 0.00 1.73 0.25 68 1012.4
20260506155015 11 324 8.0 12.9 0.00 1.73 0.25 71 1012.3
20260506154016 10 316 6.4 17.7 0.00 1.73 0.25 72 1012.2
20260506153016 10 338 8.0 14.5 0.00 1.73 0.25 72 1012.3
20260506152016 10 316 6.4 9.7 0.00 1.73 0.25 74 1012.3
20260506151016 10 350 9.7 16.1 0.00 1.73 0.25 74 1012.2
20260506150017 10 300 8.0 14.5 0.00 1.73 0.25 77 1012.1
20260506145036 9 315 9.7 17.7 0.00 1.73 0.25 77 1012.0
20260506144017 9 294 9.7 19.3 0.00 1.73 0.25 78 1011.6
20260506143017 9 300 6.4 12.9 0.00 1.73 0.25 79 1011.4
20260506142017 8 317 9.7 17.7 0.00 1.73 0.25 80 1011.1
20260506141017 8 322 8.0 12.9 0.00 1.73 0.25 81 1011.2
20260506140017 8 327 9.7 17.7 0.00 1.73 0.25 81 1011.1
20260506135058 8 295 9.7 16.1 0.00 1.73 0.25 81 1011.2
20260506134037 7 336 6.4 12.9 0.00 1.73 0.25 83 1011.2
20260506133018 7 320 8.0 14.5 0.00 1.73 0.25 85 1011.1
20260506132018 7 328 6.4 9.7 0.00 1.73 0.25 88 1011.1
20260506131022 7 343 3.2 6.4 0.00 1.73 0.25 90 1011.0
20260506130018 6 318 4.8 11.3 0.00 1.73 0.25 91 1010.9
20260506125018 6 333 4.8 8.0 0.00 1.73 0.25 92 1010.6
20260506124018 6 317 6.4 11.3 0.00 1.73 0.25 93 1010.4
20260506123039 6 326 4.8 9.7 0.00 1.73 0.25 93 1010.5
20260506122039 6 336 4.8 6.4 0.00 1.73 0.25 93 1010.2
20260506121039 6 322 6.4 11.3 0.00 1.73 0.25 94 1010.0
20260506120039 6 343 6.4 8.0 0.00 1.73 0.25 96 1009.7
20260506115023 6 346 4.8 8.0 0.00 1.73 0.25 96 1009.4
20260506114023 6 2 4.8 6.4 0.00 1.73 0.25 97 1009.3
20260506113024 6 1 4.8 8.0 0.00 1.73 0.25 97 1009.2
20260506112024 6 3 4.8 6.4 0.00 1.73 0.25 97 1009.3
20260506111039 6 328 4.8 8.0 0.00 1.73 0.25 97 1009.8
20260506110020 6 303 4.8 9.7 0.00 1.73 0.25 98 1009.6
20260506105019 6 26 4.8 8.0 0.00 1.73 0.25 98 1008.6
20260506104020 6 0 6.4 11.3 0.00 1.73 0.25 98 1008.7
20260506103025 6 356 4.8 6.4 0.00 1.73 0.25 97 1009.1
20260506102020 6 350 4.8 8.0 0.00 1.75 0.25 98 1008.7
20260506101018 6 347 4.8 11.3 0.00 1.75 0.25 98 1008.6
20260506100019 6 328 6.4 12.9 0.00 1.75 0.25 98 1008.4
20260506095016 6 337 6.4 9.7 0.00 1.78 0.25 98 1008.3
20260506094016 6 13 4.8 11.3 0.03 1.78 0.25 99 1007.7
20260506093016 7 24 8.0 16.1 0.03 1.78 0.25 99 1007.3
20260506092016 7 25 4.8 9.7 0.03 1.78 0.25 99 1007.5
20260506091016 7 18 6.4 11.3 0.03 1.78 0.25 99 1008.0
20260506090016 7 11 8.0 16.1 0.03 1.78 0.25 99 1008.3
20260506085017 7 354 6.4 12.9 0.03 1.75 0.25 99 1008.5
20260506084017 7 5 6.4 16.1 0.03 1.75 0.23 99 1008.4
20260506083017 7 6 6.4 12.9 0.03 1.75 0.23 99 1008.4
20260506082017 7 8 8.0 14.5 0.03 1.73 0.23 99 1008.3
20260506081017 7 340 8.0 14.5 0.03 1.73 0.23 99 1008.2
20260506073019 7 353 6.4 14.5 0.08 1.73 0.23 99 1008.4
20260506072038 7 356 6.4 11.3 0.08 1.73 0.20 99 1008.4
20260506071019 7 348 6.4 9.7 0.08 1.73 0.20 99 1008.1
20260506062016 7 4 6.4 12.9 0.05 1.68 0.13 99 1007.9
20260506061016 7 343 6.4 14.5 0.03 1.68 0.10 99 1008.0
20260506051018 7 345 6.4 14.5 0.05 1.63 0.08 99 1008.5
20260506045058 8 357 4.8 6.4 0.03 1.60 0.03 98 1008.4
20260506044018 8 16 4.8 8.0 0.05 1.60 0.03 98 1008.3
20260506043019 8 19 6.4 9.7 0.05 1.60 0.03 99 1008.2
20260506042019 8 26 6.4 9.7 0.05 1.60 0.03 99 1008.1
20260506041016 8 19 6.4 11.3 0.08 1.57 0.00 99 1008.0
20260506040043 8 19 6.4 11.3 0.10 1.57 0.00 98 1008.1
20260506035036 8 24 8.0 14.5 0.10 1.57 1.57 98 1008.2
20260506034016 8 12 6.4 11.3 0.10 1.55 1.55 98 1008.5
20260506033016 8 31 6.4 14.5 0.10 1.55 1.55 99 1008.7
20260506032016 8 33 4.8 14.5 0.10 1.52 1.52 98 1008.8
20260506031016 8 6 6.4 9.7 0.10 1.50 1.50 98 1009.1
20260506030016 8 353 6.4 9.7 0.10 1.47 1.47 98 1009.2
20260506025017 8 21 6.4 12.9 0.13 1.47 1.47 98 1009.4
20260506024017 8 340 8.0 16.1 0.13 1.45 1.45 98 1009.4
20260506023017 8 343 6.4 9.7 0.13 1.45 1.45 98 1009.4
20260506022017 9 323 6.4 14.5 0.13 1.42 1.42 98 1009.4
20260506021049 9 298 8.0 12.9 0.13 1.40 1.40 98 1009.4
20260506020041 9 341 6.4 11.3 0.13 1.37 1.37 98 1009.3
20260506015018 9 2 4.8 8.0 0.10 1.35 1.35 98 1008.9
20260506014018 9 10 4.8 8.0 0.10 1.32 1.32 98 1008.7
20260506013021 9 356 4.8 11.3 0.20 1.30 1.30 98 1008.5
20260506012019 9 21 6.4 9.7 0.30 1.30 1.30 98 1008.4
20260506011015 10 252 4.8 12.9 0.36 1.27 1.27 98 1008.8
20260506010016 10 354 8.0 19.3 0.36 1.27 1.24 98 1008.4
20260506005016 10 353 6.4 11.3 0.36 1.24 1.24 98 1008.4
20260506004018 10 337 9.7 17.7 0.33 1.22 1.22 98 1008.2
20260506003016 11 338 11.3 30.6 0.23 1.12 1.12 98 1008.2
20260506002016 12 327 11.3 25.7 0.10 0.99 0.97 97 1007.8
20260506001017 13 222 6.4 12.9 0.03 0.91 0.91 98 1007.4
20260506000018 13 207 3.2 8.0 0.03 0.89 0.89 98 1007.4
20260505235037 13 175 3.2 6.4 0.05 0.89 0.89 98 1007.4
20260505234017 12 51 0.0 3.2 0.10 0.89 0.89 98 1007.5
20260505233057 12 30 1.6 4.8 0.10 0.89 0.89 97 1007.6
20260505232017 13 334 3.2 4.8 0.13 0.89 0.89 97 1007.9
20260505231038 13 332 3.2 6.4 0.15 0.89 0.89 97 1008.0
20260505230018 13 274 1.6 4.8 0.18 0.86 0.86 97 1008.2
20260505225017 13 263 1.6 4.8 0.23 0.84 0.84 97 1008.3
20260505224018 13 302 1.6 3.2 0.28 0.79 0.79 97 1008.2
20260505223038 13 301 3.2 4.8 0.46 0.79 0.79 97 1008.4
20260505222016 13 320 1.6 4.8 0.56 0.76 0.76 96 1008.3
20260505221016 13 281 1.6 3.2 0.56 0.74 0.74 96 1008.3
20260505220016 13 329 1.6 3.2 0.53 0.71 0.71 96 1008.2